Flag for Iceland Weather past 2 weeks in Reykjavik, Iceland

Now
41 °F

Sunny.


Feels Like: 33 °F
Forecast: N/A
Wind: 15 mph from North

Location: Reykjavik Airport

Current Time: May 5, 2015 at 5:24:08 PM

Latest Report: May 5, 2015 at 5:00 PM


Visibility: 10 mi

Pressure: 29.86 "Hg

Humidity: 26%

Dew point: 9 °F

Location of ReykjavikLocation

Historic Weather in Reykjavik — Graph

°F

Reykjavik temperature yesterday

Maximum temperature yesterday: 39 °F (at 1:00 PM)
Minimum temperature yesterday: 32 °F (at 2:00 AM)
Average temperature yesterday: 36 °F

Past Weeks' High & Low Weather Summary

 TemperatureHumidityPressure
High45 °F (Apr 22, 3:00 PM)87% (Apr 21, 6:03 AM)30.33 "Hg (Apr 21, 6:03 AM)
Low21 °F (Apr 25, 3:00 AM)26% (May 5, 4:00 PM)29.86 "Hg (Apr 27, 7:00 PM)
Average34 °F56%30.05 "Hg
* Reported Apr 20 4:00 PM — May 5 4:00 PM, Reykjavik, Weather by CustomWeather, © 2015

Note: Actual official high and low records may vary slightly from our data, if they occured in-between our weather recording intervals... More about our weather records

Advertising

Reykjavik weather history for previous 24 hours

 ConditionsComfort  
Time TempWeatherWind HumidityBarometerVisibility
4:00 PM
Tue, May 5
41 °FSunny.12 mph26%29.86 "Hg10 mi
3:00 PM39 °FSunny.12 mph28%29.89 "Hg10 mi
2:00 PM37 °FSunny.12 mph28%29.89 "Hg10 mi
1:00 PM37 °FSunny.9 mph30%29.89 "Hg10 mi
12:00 PM37 °FSunny.10 mph28%29.89 "Hg10 mi
11:00 AM36 °FSunny.5 mph32%29.89 "Hg10 mi
10:00 AM34 °FSunny.6 mph35%29.89 "Hg10 mi
9:00 AM34 °FPassing clouds.3 mph35%29.89 "HgN/A
8:00 AM32 °FSunny.7 mph40%29.89 "Hg10 mi
7:00 AM28 °FSunny.3 mph51%29.89 "Hg10 mi
6:00 AM27 °FSunny.No wind54%29.86 "Hg10 mi
5:00 AM25 °FSunny.5 mph59%29.86 "Hg10 mi
4:00 AM27 °FClear.No wind54%29.86 "HgN/A
3:00 AM27 °FClear.6 mph54%29.89 "Hg10 mi
2:00 AM28 °FClear.13 mph59%29.89 "Hg10 mi
1:00 AM28 °FClear.3 mph51%29.89 "Hg10 mi
12:00 AM30 °FClear.2 mph47%29.89 "Hg10 mi
11:00 PM
Mon, May 4
32 °FPassing clouds.8 mph44%29.89 "HgN/A
10:00 PM34 °FClear.2 mph38%29.89 "Hg10 mi
9:00 PM36 °FPassing clouds.14 mph38%29.86 "HgN/A
8:00 PM37 °FSunny.20 mph41%29.86 "Hg10 mi
7:00 PM39 °FSunny.21 mph36%29.86 "Hg10 mi
6:00 PM39 °FSunny.21 mph30%29.86 "Hg10 mi
5:00 PM39 °FSunny.20 mph30%29.86 "Hg10 mi
Weather by CustomWeather, © 2015

See weather overviewHow to use our weather pages